TimeCDT,TemperatureF,Dew PointF,Humidity,Sea Level PressureIn,VisibilityMPH,Wind Direction,Wind SpeedMPH,Gust SpeedMPH,PrecipitationIn,Events,Conditions,WindDirDegrees,DateUTC
12:15 AM,53.6,48.2,82,29.99,10.0,Calm,Calm,-,N/A,,Clear,0,2012-03-26 05:15:00
12:35 AM,55.4,48.2,77,29.99,10.0,NW,4.6,-,N/A,,Clear,320,2012-03-26 05:35:00
12:55 AM,55.4,48.2,77,29.99,10.0,Calm,Calm,-,N/A,,Clear,0,2012-03-26 05:55:00
1:15 AM,53.6,48.2,82,29.99,10.0,Calm,Calm,-,N/A,,Clear,0,2012-03-26 06:15:00
1:35 AM,53.6,48.2,82,29.99,10.0,Calm,Calm,-,N/A,,Clear,0,2012-03-26 06:35:00
1:55 AM,53.6,48.2,82,30.00,10.0,Calm,Calm,-,N/A,,Clear,0,2012-03-26 06:55:00
2:15 AM,53.6,48.2,82,30.00,10.0,Calm,Calm,-,N/A,,Clear,0,2012-03-26 07:15:00
2:35 AM,51.8,48.2,88,30.00,10.0,NNE,3.5,-,N/A,,Clear,30,2012-03-26 07:35:00
3:15 AM,53.6,48.2,82,30.00,10.0,Calm,Calm,-,N/A,,Clear,0,2012-03-26 08:15:00
3:35 AM,51.8,46.4,82,30.00,10.0,Calm,Calm,-,N/A,,Clear,0,2012-03-26 08:35:00
3:55 AM,51.8,48.2,88,30.00,10.0,Calm,Calm,-,N/A,,Clear,0,2012-03-26 08:55:00
4:15 AM,50.0,46.4,87,30.00,10.0,Calm,Calm,-,N/A,,Clear,0,2012-03-26 09:15:00
4:35 AM,51.8,48.2,88,30.00,10.0,Calm,Calm,-,N/A,,Clear,0,2012-03-26 09:35:00
4:55 AM,50.0,46.4,87,30.01,10.0,Calm,Calm,-,N/A,,Clear,0,2012-03-26 09:55:00
5:15 AM,51.8,48.2,88,30.02,10.0,Calm,Calm,-,N/A,,Clear,0,2012-03-26 10:15:00
5:35 AM,50.0,46.4,87,30.02,10.0,Calm,Calm,-,N/A,,Clear,0,2012-03-26 10:35:00
5:55 AM,50.0,46.4,87,30.02,9.0,Calm,Calm,-,N/A,,Clear,0,2012-03-26 10:55:00
6:15 AM,48.2,46.4,93,30.03,8.0,Calm,Calm,-,N/A,,Clear,0,2012-03-26 11:15:00
6:35 AM,50.0,48.2,94,30.03,8.0,Calm,Calm,-,N/A,,Clear,0,2012-03-26 11:35:00
6:55 AM,48.2,46.4,93,30.03,6.0,Calm,Calm,-,N/A,,Clear,0,2012-03-26 11:55:00
7:15 AM,50.0,46.4,87,30.05,5.0,Calm,Calm,-,N/A,,Clear,0,2012-03-26 12:15:00
7:35 AM,53.6,51.8,94,30.05,6.0,Calm,Calm,-,N/A,,Clear,0,2012-03-26 12:35:00
7:55 AM,55.4,51.8,88,30.05,7.0,Calm,Calm,-,N/A,,Clear,0,2012-03-26 12:55:00
8:15 AM,57.2,53.6,88,30.06,10.0,NNW,5.8,-,N/A,,Clear,340,2012-03-26 13:15:00
8:35 AM,60.8,53.6,77,30.07,10.0,North,8.1,-,N/A,,Clear,350,2012-03-26 13:35:00
9:15 AM,62.6,53.6,72,30.08,10.0,North,10.4,-,N/A,,Clear,360,2012-03-26 14:15:00
9:35 AM,64.4,53.6,68,30.09,10.0,NNE,6.9,-,N/A,,Clear,20,2012-03-26 14:35:00
9:55 AM,66.2,53.6,64,30.09,10.0,NE,11.5,-,N/A,,Clear,40,2012-03-26 14:55:00
10:15 AM,68.0,53.6,60,30.09,10.0,NNE,10.4,-,N/A,,Clear,20,2012-03-26 15:15:00
10:35 AM,69.8,53.6,56,30.09,10.0,NE,5.8,-,N/A,,Clear,40,2012-03-26 15:35:00
10:55 AM,71.6,53.6,53,30.09,10.0,NE,8.1,-,N/A,,Clear,40,2012-03-26 15:55:00
11:15 AM,71.6,55.4,57,30.09,10.0,East,6.9,-,N/A,,Clear,90,2012-03-26 16:15:00
11:35 AM,71.6,53.6,53,30.09,10.0,Calm,Calm,-,N/A,,Clear,0,2012-03-26 16:35:00
11:55 AM,73.4,53.6,50,30.08,7.0,ESE,3.5,-,N/A,,Clear,110,2012-03-26 16:55:00
12:15 PM,75.2,53.6,47,30.07,10.0,ENE,4.6,-,N/A,,Clear,70,2012-03-26 17:15:00
12:35 PM,75.2,53.6,47,30.07,10.0,North,5.8,-,N/A,,Clear,350,2012-03-26 17:35:00
12:55 PM,75.2,50.0,41,30.06,10.0,North,10.4,16.1,N/A,,Clear,350,2012-03-26 17:55:00
1:35 PM,77.0,48.2,36,30.06,10.0,NNE,6.9,16.1,N/A,,Clear,20,2012-03-26 18:35:00
1:55 PM,78.8,51.8,39,30.05,10.0,NNE,10.4,19.6,N/A,,Clear,30,2012-03-26 18:55:00
2:15 PM,78.8,50.0,36,30.04,10.0,NE,8.1,-,N/A,,Clear,40,2012-03-26 19:15:00
2:35 PM,78.8,48.2,34,30.04,10.0,North,9.2,16.1,N/A,,Clear,10,2012-03-26 19:35:00
2:55 PM,78.8,46.4,32,30.03,10.0,NNE,5.8,-,N/A,,Clear,20,2012-03-26 19:55:00
3:15 PM,78.8,48.2,34,30.02,10.0,NNW,6.9,-,N/A,,Clear,340,2012-03-26 20:15:00
3:35 PM,78.8,48.2,34,30.02,10.0,NNW,10.4,-,N/A,,Clear,340,2012-03-26 20:35:00
3:55 PM,78.8,48.2,34,30.02,10.0,NNW,8.1,-,N/A,,Clear,330,2012-03-26 20:55:00
4:15 PM,78.8,46.4,32,30.02,10.0,North,9.2,16.1,N/A,,Clear,350,2012-03-26 21:15:00
4:35 PM,78.8,46.4,32,30.01,10.0,North,9.2,-,N/A,,Clear,350,2012-03-26 21:35:00
4:55 PM,77.0,46.4,34,30.01,10.0,North,6.9,-,N/A,,Clear,350,2012-03-26 21:55:00
5:15 PM,77.0,44.6,32,30.02,10.0,North,9.2,-,N/A,,Clear,350,2012-03-26 22:15:00
5:35 PM,77.0,42.8,29,30.01,10.0,NNE,8.1,-,N/A,,Clear,30,2012-03-26 22:35:00
5:55 PM,77.0,42.8,29,30.01,10.0,North,5.8,-,N/A,,Clear,360,2012-03-26 22:55:00
6:15 PM,75.2,48.2,38,30.02,10.0,NW,6.9,-,N/A,,Clear,320,2012-03-26 23:15:00
6:35 PM,73.4,48.2,41,30.02,10.0,NNW,5.8,-,N/A,,Clear,340,2012-03-26 23:35:00
6:55 PM,71.6,48.2,43,30.02,10.0,NW,4.6,-,N/A,,Clear,320,2012-03-26 23:55:00
7:15 PM,71.6,48.2,43,30.03,10.0,NW,3.5,-,N/A,,Clear,320,2012-03-27 00:15:00
7:35 PM,69.8,50.0,49,30.03,10.0,NW,4.6,-,N/A,,Clear,320,2012-03-27 00:35:00
7:55 PM,68.0,50.0,52,30.03,10.0,NNW,4.6,-,N/A,,Clear,330,2012-03-27 00:55:00
8:15 PM,64.4,51.8,64,30.04,10.0,NW,3.5,-,N/A,,Clear,310,2012-03-27 01:15:00
8:35 PM,64.4,51.8,64,30.05,10.0,NW,4.6,-,N/A,,Clear,320,2012-03-27 01:35:00
8:55 PM,60.8,51.8,72,30.05,10.0,Calm,Calm,-,N/A,,Clear,0,2012-03-27 01:55:00
9:15 PM,59.0,51.8,77,30.06,10.0,Calm,Calm,-,N/A,,Clear,0,2012-03-27 02:15:00
9:35 PM,60.8,50.0,68,30.06,10.0,NNW,3.5,-,N/A,,Clear,330,2012-03-27 02:35:00
9:55 PM,57.2,51.8,82,30.07,9.0,Calm,Calm,-,N/A,,Clear,0,2012-03-27 02:55:00
10:15 PM,57.2,51.8,82,30.07,10.0,Calm,Calm,-,N/A,,Clear,0,2012-03-27 03:15:00
10:35 PM,55.4,51.8,88,30.07,10.0,West,4.6,-,N/A,,Clear,260,2012-03-27 03:35:00
10:55 PM,55.4,50.0,82,30.07,10.0,Calm,Calm,-,N/A,,Clear,0,2012-03-27 03:55:00
11:15 PM,53.6,50.0,88,30.07,10.0,Calm,Calm,-,N/A,,Clear,0,2012-03-27 04:15:00
11:35 PM,53.6,50.0,88,30.07,10.0,Calm,Calm,-,N/A,,Clear,0,2012-03-27 04:35:00
11:55 PM,53.6,50.0,88,30.08,10.0,Calm,Calm,-,N/A,,Clear,0,2012-03-27 04:55:00